| time (UTC) | temp F | wind direction | speed MPH | gust MPH | rain 1hr in | rain 24hr in | rain mn in | humidity % | barometer mb |
| 20260505022541 | 49 | 271 | 4.0 | 9.0 | 0.03 | 0.07 | 0.07 | 77 | 1012.7 |
| 20260505022041 | 49 | 242 | 4.0 | 9.0 | 0.02 | 0.06 | 0.06 | 75 | 1012.6 |
| 20260505021603 | 50 | 288 | 3.0 | 8.0 | 0.01 | 0.05 | 0.05 | 72 | 1012.4 |
| 20260505021041 | 51 | 277 | 3.0 | 8.0 | 0.01 | 0.05 | 0.05 | 70 | 1012.3 |
| 20260505020541 | 51 | 302 | 1.0 | 5.0 | 0.00 | 0.04 | 0.04 | 69 | 1012.2 |
| 20260505020049 | 51 | 0 | 0.0 | 0.0 | 0.00 | 0.04 | 0.04 | 68 | 1012.2 |
| 20260505015541 | 52 | 0 | 0.0 | 4.0 | 0.00 | 0.04 | 0.04 | 66 | 1012.3 |
| 20260505015041 | 52 | 0 | 0.0 | 6.0 | 0.00 | 0.04 | 0.04 | 64 | 1012.0 |
| 20260505014549 | 52 | 0 | 0.0 | 8.0 | 0.00 | 0.04 | 0.04 | 63 | 1012.0 |
| 20260505014041 | 52 | 309 | 2.0 | 8.0 | 0.00 | 0.04 | 0.04 | 63 | 1011.8 |
| 20260505013542 | 52 | 343 | 2.0 | 10.0 | 0.00 | 0.04 | 0.04 | 64 | 1011.7 |
| 20260505013049 | 52 | 321 | 4.0 | 10.0 | 0.00 | 0.04 | 0.04 | 64 | 1011.6 |
| 20260505012541 | 52 | 340 | 3.0 | 13.0 | 0.00 | 0.04 | 0.04 | 64 | 1011.5 |
| 20260505012041 | 52 | 355 | 3.0 | 13.0 | 0.00 | 0.04 | 0.04 | 63 | 1011.7 |
| 20260505011555 | 52 | 355 | 4.0 | 14.0 | 0.00 | 0.04 | 0.04 | 63 | 1011.6 |
| 20260505011041 | 52 | 352 | 7.0 | 14.0 | 0.00 | 0.04 | 0.04 | 63 | 1011.4 |
| 20260505010541 | 53 | 351 | 6.0 | 17.0 | 0.00 | 0.04 | 0.04 | 62 | 1011.6 |
| 20260505010045 | 54 | 360 | 7.0 | 17.0 | 0.00 | 0.04 | 0.04 | 58 | 1011.5 |
| 20260505005541 | 56 | 59 | 3.0 | 17.0 | 0.00 | 0.04 | 0.04 | 56 | 1011.3 |
| 20260505005041 | 56 | 57 | 2.0 | 6.0 | 0.00 | 0.04 | 0.04 | 53 | 1011.4 |
| 20260505004548 | 56 | 11 | 1.0 | 4.0 | 0.00 | 0.04 | 0.04 | 52 | 1011.4 |
| 20260505004040 | 56 | 5 | 1.0 | 4.0 | 0.00 | 0.04 | 0.04 | 52 | 1011.4 |
| 20260505003541 | 56 | 5 | 0.0 | 4.0 | 0.00 | 0.04 | 0.04 | 54 | 1011.3 |
| 20260505003046 | 56 | 5 | 1.0 | 4.0 | 0.00 | 0.04 | 0.04 | 55 | 1011.3 |
| 20260505002540 | 56 | 0 | 0.0 | 4.0 | 0.00 | 0.04 | 0.04 | 56 | 1011.3 |
| 20260505002040 | 56 | 0 | 1.0 | 4.0 | 0.00 | 0.04 | 0.04 | 55 | 1011.4 |
| 20260505001549 | 56 | 0 | 2.0 | 4.0 | 0.00 | 0.04 | 0.04 | 56 | 1011.4 |
| 20260505001042 | 56 | 0 | 1.0 | 5.0 | 0.00 | 0.04 | 0.04 | 59 | 1011.3 |
| 20260505000541 | 56 | 339 | 1.0 | 5.0 | 0.00 | 0.04 | 0.04 | 61 | 1011.3 |
| 20260505000049 | 56 | 333 | 2.0 | 5.0 | 0.00 | 0.04 | 0.04 | 62 | 1011.2 |
| 20260504235541 | 55 | 26 | 2.0 | 6.0 | 0.00 | 0.04 | 0.04 | 62 | 1011.2 |
| 20260504235042 | 55 | 25 | 0.0 | 7.0 | 0.00 | 0.04 | 0.04 | 63 | 1011.1 |
| 20260504234548 | 56 | 73 | 2.0 | 7.0 | 0.00 | 0.04 | 0.04 | 59 | 1011.2 |
| 20260504234045 | 56 | 44 | 0.0 | 3.0 | 0.00 | 0.04 | 0.04 | 53 | 1011.3 |
| 20260504233542 | 56 | 0 | 0.0 | 3.0 | 0.01 | 0.04 | 0.04 | 53 | 1011.3 |
| 20260504233057 | 56 | 0 | 0.0 | 2.0 | 0.01 | 0.04 | 0.04 | 54 | 1011.3 |
| 20260504232614 | 56 | 0 | 0.0 | 3.0 | 0.01 | 0.04 | 0.04 | 51 | 1011.1 |
| 20260504232041 | 56 | 0 | 0.0 | 3.0 | 0.01 | 0.04 | 0.04 | 61 | 1011.1 |
| 20260504231551 | 56 | 22 | 0.0 | 3.0 | 0.01 | 0.04 | 0.04 | 57 | 1011.1 |
| 20260504231041 | 56 | 0 | 0.0 | 3.0 | 0.01 | 0.04 | 0.04 | 58 | 1011.1 |
| 20260504230541 | 56 | 345 | 0.0 | 2.0 | 0.01 | 0.04 | 0.04 | 55 | 1010.9 |
| 20260504230048 | 55 | 0 | 0.0 | 4.0 | 0.01 | 0.04 | 0.04 | 53 | 1010.9 |
| 20260504225541 | 55 | 0 | 0.0 | 4.0 | 0.01 | 0.04 | 0.04 | 60 | 1011.2 |
| 20260504225041 | 54 | 342 | 2.0 | 7.0 | 0.01 | 0.04 | 0.04 | 62 | 1011.2 |
| 20260504224551 | 55 | 332 | 1.0 | 18.0 | 0.01 | 0.04 | 0.04 | 63 | 1011.1 |
| 20260504224043 | 55 | 257 | 3.0 | 18.0 | 0.01 | 0.04 | 0.04 | 60 | 1011.4 |
| 20260504223541 | 57 | 194 | 7.0 | 15.0 | 0.00 | 0.03 | 0.03 | 55 | 1011.5 |
| 20260504223102 | 58 | 238 | 1.0 | 6.0 | 0.00 | 0.03 | 0.03 | 43 | 1011.5 |
| 20260504222541 | 58 | 0 | 1.0 | 6.0 | 0.00 | 0.03 | 0.03 | 42 | 1011.5 |
| 20260504222042 | 58 | 292 | 1.0 | 6.0 | 0.00 | 0.03 | 0.03 | 44 | 1011.6 |
| 20260504221603 | 58 | 292 | 1.0 | 6.0 | 0.00 | 0.03 | 0.03 | 46 | 1011.4 |
| 20260504221041 | 58 | 336 | 1.0 | 7.0 | 0.00 | 0.03 | 0.03 | 46 | 1011.1 |
| 20260504220542 | 58 | 325 | 2.0 | 10.0 | 0.00 | 0.03 | 0.03 | 44 | 1010.7 |
| 20260504220117 | 58 | 360 | 4.0 | 11.0 | 0.00 | 0.03 | 0.03 | 46 | 1010.2 |
| 20260504215541 | 58 | 22 | 5.0 | 12.0 | 0.00 | 0.03 | 0.03 | 46 | 1009.8 |
| 20260504215041 | 59 | 32 | 5.0 | 12.0 | 0.00 | 0.03 | 0.03 | 48 | 1009.7 |
| 20260504214549 | 58 | 355 | 5.0 | 12.0 | 0.00 | 0.03 | 0.03 | 47 | 1009.6 |
| 20260504214041 | 58 | 60 | 5.0 | 14.0 | 0.00 | 0.03 | 0.03 | 50 | 1009.8 |
| 20260504213541 | 58 | 32 | 6.0 | 19.0 | 0.02 | 0.03 | 0.03 | 50 | 1009.8 |
| 20260504213103 | 58 | 13 | 8.0 | 19.0 | 0.03 | 0.03 | 0.03 | 50 | 1010.0 |
| 20260504212542 | 58 | 33 | 9.0 | 19.0 | 0.03 | 0.03 | 0.03 | 49 | 1010.2 |
| 20260504212040 | 58 | 352 | 8.0 | 18.0 | 0.03 | 0.03 | 0.03 | 54 | 1010.0 |
| 20260504211550 | 57 | 9 | 6.0 | 17.0 | 0.03 | 0.03 | 0.03 | 55 | 1009.9 |
| 20260504211041 | 58 | 355 | 8.0 | 20.0 | 0.03 | 0.03 | 0.03 | 53 | 1010.1 |
| 20260504210541 | 58 | 14 | 7.0 | 20.0 | 0.03 | 0.03 | 0.03 | 52 | 1010.2 |
| 20260504210048 | 59 | 26 | 7.0 | 18.0 | 0.03 | 0.03 | 0.03 | 54 | 1010.1 |
| 20260504205541 | 58 | 34 | 7.0 | 25.0 | 0.03 | 0.03 | 0.03 | 55 | 1010.2 |
| 20260504205040 | 56 | 327 | 9.0 | 25.0 | 0.03 | 0.03 | 0.03 | 57 | 1010.2 |
| 20260504204601 | 55 | 34 | 6.0 | 28.0 | 0.03 | 0.03 | 0.03 | 55 | 1009.9 |
| 20260504204040 | 58 | 71 | 10.0 | 28.0 | 0.03 | 0.03 | 0.03 | 50 | 1010.3 |
| 20260504203540 | 63 | 344 | 15.0 | 23.0 | 0.01 | 0.01 | 0.01 | 36 | 1009.7 |
| 20260504203046 | 68 | 47 | 4.0 | 12.0 | 0.00 | 0.00 | 0.00 | 25 | 1010.0 |
| 20260504202540 | 69 | 336 | 4.0 | 9.0 | 0.00 | 0.00 | 0.00 | 24 | 1009.3 |
| 20260504202044 | 69 | 318 | 4.0 | 10.0 | 0.00 | 0.00 | 0.00 | 24 | 1009.2 |
| 20260504201549 | 68 | 252 | 5.0 | 15.0 | 0.00 | 0.00 | 0.00 | 26 | 1009.2 |
| 20260504201041 | 68 | 275 | 5.0 | 15.0 | 0.00 | 0.00 | 0.00 | 26 | 1009.2 |
| 20260504200544 | 68 | 208 | 7.0 | 14.0 | 0.00 | 0.00 | 0.00 | 25 | 1009.3 |
| 20260504195540 | 69 | 215 | 5.0 | 17.0 | 0.00 | 0.00 | 0.00 | 24 | 1009.3 |
| 20260504195041 | 69 | 246 | 5.0 | 18.0 | 0.00 | 0.00 | 0.00 | 24 | 1009.2 |
| 20260504194546 | 68 | 272 | 8.0 | 18.0 | 0.00 | 0.00 | 0.00 | 24 | 1009.4 |
| 20260504194041 | 69 | 216 | 9.0 | 18.0 | 0.00 | 0.00 | 0.00 | 20 | 1009.3 |
| 20260504193541 | 70 | 211 | 7.0 | 18.0 | 0.00 | 0.00 | 0.00 | 20 | 1009.2 |
| 20260504193046 | 70 | 194 | 3.0 | 16.0 | 0.00 | 0.00 | 0.00 | 20 | 1009.2 |
| 20260504192540 | 70 | 269 | 6.0 | 16.0 | 0.00 | 0.00 | 0.00 | 20 | 1009.2 |
| 20260504192041 | 70 | 229 | 1.0 | 8.0 | 0.00 | 0.00 | 0.00 | 22 | 1009.1 |
| 20260504191549 | 69 | 235 | 1.0 | 11.0 | 0.00 | 0.00 | 0.00 | 20 | 1009.1 |
| 20260504191040 | 69 | 200 | 2.0 | 13.0 | 0.00 | 0.00 | 0.00 | 20 | 1009.2 |
| 20260504190541 | 69 | 277 | 3.0 | 13.0 | 0.00 | 0.00 | 0.00 | 21 | 1009.2 |
| 20260504190049 | 70 | 313 | 3.0 | 12.0 | 0.00 | 0.00 | 0.00 | 20 | 1009.2 |
| 20260504185541 | 69 | 331 | 5.0 | 14.0 | 0.00 | 0.00 | 0.00 | 20 | 1009.3 |
| 20260504185041 | 70 | 355 | 6.0 | 14.0 | 0.00 | 0.00 | 0.00 | 20 | 1009.2 |
| 20260504184555 | 70 | 336 | 3.0 | 12.0 | 0.00 | 0.00 | 0.00 | 20 | 1009.3 |
| 20260504184041 | 70 | 355 | 2.0 | 12.0 | 0.00 | 0.00 | 0.00 | 21 | 1009.4 |
| 20260504183541 | 70 | 347 | 4.0 | 13.0 | 0.00 | 0.00 | 0.00 | 22 | 1009.5 |
| 20260504183049 | 69 | 317 | 4.0 | 13.0 | 0.00 | 0.00 | 0.00 | 21 | 1009.6 |
| 20260504182540 | 69 | 303 | 5.0 | 11.0 | 0.00 | 0.00 | 0.00 | 22 | 1009.8 |
| 20260504182040 | 69 | 226 | 4.0 | 11.0 | 0.00 | 0.00 | 0.00 | 23 | 1009.8 |
| 20260504181553 | 69 | 277 | 4.0 | 16.0 | 0.00 | 0.00 | 0.00 | 23 | 1009.9 |
| 20260504181041 | 69 | 268 | 3.0 | 16.0 | 0.00 | 0.00 | 0.00 | 23 | 1010.1 |
| 20260504180544 | 69 | 221 | 7.0 | 14.0 | 0.00 | 0.00 | 0.00 | 22 | 1010.2 |
| 20260504180044 | 69 | 253 | 4.0 | 12.0 | 0.00 | 0.00 | 0.00 | 24 | 1010.4 |
| 20260504175540 | 68 | 254 | 3.0 | 13.0 | 0.00 | 0.00 | 0.00 | 24 | 1010.4 |
| 20260504175043 | 68 | 270 | 7.0 | 16.0 | 0.00 | 0.00 | 0.00 | 25 | 1010.5 |
| 20260504174549 | 68 | 312 | 7.0 | 16.0 | 0.00 | 0.00 | 0.00 | 25 | 1010.6 |
| 20260504174040 | 67 | 168 | 6.0 | 15.0 | 0.00 | 0.00 | 0.00 | 26 | 1010.7 |
| 20260504173539 | 66 | 326 | 8.0 | 15.0 | 0.00 | 0.00 | 0.00 | 27 | 1010.9 |
| 20260504173048 | 65 | 216 | 6.0 | 14.0 | 0.00 | 0.00 | 0.00 | 28 | 1010.8 |
| 20260504172540 | 64 | 309 | 6.0 | 13.0 | 0.00 | 0.00 | 0.00 | 28 | 1011.0 |
| 20260504172041 | 64 | 205 | 5.0 | 13.0 | 0.00 | 0.00 | 0.00 | 28 | 1011.1 |
| 20260504171547 | 63 | 267 | 6.0 | 14.0 | 0.00 | 0.00 | 0.00 | 28 | 1011.1 |
| 20260504171041 | 63 | 309 | 6.0 | 14.0 | 0.00 | 0.00 | 0.00 | 28 | 1011.1 |
| 20260504170541 | 62 | 267 | 5.0 | 14.0 | 0.00 | 0.00 | 0.00 | 28 | 1011.2 |
| 20260504151042 | 61 | 286 | 4.0 | 10.0 | 0.00 | 0.00 | 0.00 | 28 | 1011.3 |
| 20260504150540 | 61 | 196 | 4.0 | 10.0 | 0.00 | 0.00 | 0.00 | 27 | 1011.3 |
| 20260504141040 | 59 | 0 | 0.0 | 5.0 | 0.00 | 0.00 | 0.00 | 26 | 1011.3 |
| 20260504140543 | 58 | 242 | 2.0 | 5.0 | 0.00 | 0.00 | 0.00 | 26 | 1011.3 |
| 20260504130544 | 52 | 288 | 7.0 | 12.0 | 0.00 | 0.00 | 0.00 | 28 | 1011.2 |
| 20260504110544 | 48 | 318 | 2.0 | 5.0 | 0.00 | 0.00 | 0.00 | 33 | 1010.9 |
| 20260504100543 | 47 | 347 | 1.0 | 8.0 | 0.00 | 0.00 | 0.00 | 33 | 1011.1 |
| 20260504081552 | 48 | 275 | 4.0 | 10.0 | 0.00 | 0.00 | 0.00 | 33 | 1011.9 |
| 20260504081043 | 49 | 297 | 4.0 | 9.0 | 0.00 | 0.00 | 0.00 | 32 | 1012.1 |
| 20260504080543 | 49 | 279 | 3.0 | 8.0 | 0.00 | 0.00 | 0.00 | 32 | 1012.2 |
| 20260504050543 | 57 | 267 | 7.0 | 12.0 | 0.00 | 0.00 | 0.00 | 27 | 1012.8 |
| 20260504045542 | 57 | 276 | 7.0 | 11.0 | 0.00 | 0.00 | 0.00 | 26 | 1012.7 |
| 20260504045043 | 58 | 331 | 6.0 | 10.0 | 0.00 | 0.00 | 0.00 | 27 | 1012.7 |
| 20260504044554 | 58 | 291 | 7.0 | 10.0 | 0.00 | 0.00 | 0.00 | 26 | 1012.7 |
| 20260504044043 | 58 | 300 | 5.0 | 11.0 | 0.00 | 0.00 | 0.00 | 26 | 1012.7 |
| 20260504043544 | 58 | 290 | 6.0 | 12.0 | 0.00 | 0.00 | 0.00 | 27 | 1012.7 |
| 20260504043057 | 58 | 297 | 4.0 | 12.0 | 0.00 | 0.00 | 0.00 | 27 | 1012.8 |
| 20260504042544 | 59 | 279 | 6.0 | 12.0 | 0.00 | 0.00 | 0.00 | 26 | 1012.8 |
| 20260504042042 | 59 | 263 | 5.0 | 11.0 | 0.00 | 0.00 | 0.00 | 26 | 1012.9 |
| 20260504041552 | 60 | 294 | 5.0 | 11.0 | 0.00 | 0.00 | 0.00 | 26 | 1012.9 |
| 20260504041042 | 62 | 286 | 5.0 | 15.0 | 0.00 | 0.00 | 0.00 | 24 | 1012.9 |
| 20260504040542 | 62 | 302 | 6.0 | 15.0 | 0.00 | 0.00 | 0.00 | 24 | 1013.0 |
| 20260504040055 | 62 | 285 | 5.0 | 18.0 | 0.00 | 0.00 | 0.00 | 24 | 1013.1 |
| 20260504035543 | 62 | 311 | 6.0 | 18.0 | 0.00 | 0.00 | 0.00 | 24 | 1013.1 |
| 20260504035042 | 62 | 286 | 8.0 | 18.0 | 0.00 | 0.00 | 0.00 | 24 | 1013.2 |
| 20260504034552 | 62 | 288 | 7.0 | 14.0 | 0.00 | 0.00 | 0.00 | 24 | 1013.2 |
| 20260504034042 | 62 | 263 | 7.0 | 14.0 | 0.00 | 0.00 | 0.00 | 25 | 1013.3 |
| 20260504033545 | 62 | 275 | 8.0 | 14.0 | 0.00 | 0.00 | 0.00 | 25 | 1013.3 |
| 20260504033051 | 62 | 269 | 5.0 | 12.0 | 0.00 | 0.00 | 0.00 | 25 | 1013.2 |
| 20260504032540 | 62 | 273 | 5.0 | 14.0 | 0.00 | 0.00 | 0.00 | 25 | 1013.2 |
| 20260504032046 | 62 | 245 | 6.0 | 14.0 | 0.00 | 0.00 | 0.00 | 24 | 1013.2 |
| 20260504031553 | 62 | 298 | 6.0 | 14.0 | 0.00 | 0.00 | 0.00 | 25 | 1013.2 |
| 20260504031042 | 62 | 268 | 7.0 | 13.0 | 0.00 | 0.00 | 0.00 | 25 | 1013.2 |
| 20260504030542 | 62 | 254 | 6.0 | 13.0 | 0.00 | 0.00 | 0.00 | 25 | 1013.2 |
| 20260504030050 | 63 | 292 | 6.0 | 16.0 | 0.00 | 0.00 | 0.00 | 25 | 1013.2 |
| 20260504025539 | 63 | 258 | 7.0 | 16.0 | 0.00 | 0.00 | 0.00 | 24 | 1013.2 |
| 20260504025044 | 63 | 262 | 6.0 | 13.0 | 0.00 | 0.00 | 0.00 | 24 | 1013.1 |
| 20260504024556 | 63 | 267 | 5.0 | 12.0 | 0.00 | 0.00 | 0.00 | 24 | 1013.1 |
| 20260504024044 | 63 | 262 | 4.0 | 14.0 | 0.00 | 0.00 | 0.00 | 23 | 1013.1 |
| 20260504023542 | 63 | 235 | 5.0 | 14.0 | 0.00 | 0.00 | 0.00 | 23 | 1013.1 |
| 20260504023052 | 63 | 217 | 4.0 | 10.0 | 0.00 | 0.00 | 0.00 | 23 | 1013.1 |